DELTA 1 DEB, 13536

Orbit data source: Space-Track

DELTA 1 DEB, 13536 is space debris in LEO originally from a launch on Thu, 29 Jul 1976 UTC launched from the Air Force Western Test Range (AFWTR). Debris objects in space refer to the collection of defunct objects orbiting the Earth. Examples of debris include non-operational satellites, rocket bodies, and fragments generated from explosions, collisions, or faulty payload assembly.

Loading next visibility...
Identifier
13536, 1976-077EJ
Orbit
LEO
Country
Flag of USUS
Related business
Manufacturer
Unknown
Mission
Spacecraft
Bus & Motor
Unknown
Mass
Unknown
Launch date (UTC)
1976-07-29 (49 years ago)
Launch vehicle
Unknown
Launch site
Air Force Western Test Range (AFWTR)
Object type
Payload
Rocket body
Debris
Shape & HBR
Unknown shape, 0.1 m
Radar Cross Section
Small (<0.1 m²)

Expand to show TLE details & history
Last TLE update: 1 day ago

TLE from 1 day ago
0 DELTA 1 DEB
1 13536U 76077EJ  25347.04283998 -.00000003  00000-0  43705-3 0  9995
2 13536 101.7960 281.6216 0422170 357.6764  60.7526 11.75910414 36170
Epoch: 2025-12-13T01:01Z
TLE epoch observation values (Epoch: 2025-12-13T01:01:41.374Z)
Latitude
60.58213°
Longitude
162.59607°
Altitude
1,643.584 km
Speed
7.123 km/s
True Right ascension
17h 19m 58s
True Declination
60° 27' 04"
Sunlit
Object was in daylight at epoch
Visualization orbit readout
Latitude
Unknown
Longitude
Unknown
Altitude
Unknown
Speed
Unknown
Apparent Right ascension
Unknown
Apparent Declination
Unknown
Sunlit
N/A
Visualization observer readout
Local Sidereal Time
06:00:33
Azimuth
Unknown
Elevation
Unknown
Doppler factor
Unknown
Orbital elements
Apogee altitude
2,132.951 km
Perigee altitude
1,443.435 km
Semi-major axis
8,166.33 km
Eccentricity
0.04222
Inclination
101.796°
RAAN
281.6216°
Arg. of periapsis
357.6764°
True anomaly
65.08105°
Mean anomaly
60.7526°
Eccentric anomaly
62.90601°
Mean motion
2.94105 °/min
Orbital period
122.41 mins
BSTAR
0.00043705
Loading maneuver chart data...
Computing Atmospheric mass density...
Loading historical data...
Loading historical data...
Loading historical data...
Loading historical data...
Loading historical data...
Loading historical data...
Loading historical data...

Documentation

Showing up to 5 results
|